7 * 24
多渠道服务支持
STARLINK-32829 是 SpaceX Starlink 卫星互联网项目中的一颗低轨通信卫星。它属于 Starlink 群体部署的一部分,旨在为全球用户提供高速、低延迟的互联网服务。该卫星运行在约 550 公里的近地轨道,配备先进通信设备,支持宽带数据传输。作为 Starlink 计划的常规组成部分,它有助于扩大网络覆盖范围,特别是在偏远和网络基础设施薄弱的地区。
美国
(US)
| 数据来源 | 国际轨道数据 |
| 星历时间: | 2025-11-06T20:32:21+0800 1天前 查看轨道信息 |
| 半长轴: | 6853.3km |
| 偏心率: | 0.0001097 |
| 轨道倾角: | 53.154° |
| 近地点辐角 | 105.116° |
| 升交点赤经 | 123.412° |
| 平近点角 | 254.996° |
| 近地点: | 474.413km |
| 远地点: | 475.917km |
| 周期: | 94.104分钟 |
| 每日圈数: | 15.302175 |